sat.trackr.live / text

‹ back to catalog

ONEWEB-0029

NORAD 45445 · 2020-020X

PAYLOAD ACTIVE UNKNOWN

§ Identity

Operator
Country
UK
Launch date
2020-03-21
Launch site
TYMSC
Launch vehicle
Mass (kg)
RCS (m²)

Purposes: comms

External: N2YO · Heavens-Above · Gunter

§ Orbital elements

Epoch: 2026-09-20T02:15:16.595712Z

Period
109.80 min
Inclination
87.8969°
Eccentricity
0.0002015
Mean motion
13.11418107 rev/d
Perigee alt
1,216.1 km
Apogee alt
1,219.2 km
Semi-major
7,595.8 km
B*
-6.8610e-5
RAAN
2.2011°
Arg perigee
98.2821°
Mean anomaly
261.8535°
Rev number
31,509

§ Raw data

ONEWEB-00291 45445U 20020X   26263.09394208 -.00000012  00000+0 -68610-4 0  99992 45445  87.8969   2.2011 0002015  98.2821 261.8535 13.11418107315090

JSON: /api/v1/satellites/45445 · /tle

For live sub-satellite position, see the globe view (requires WebGL).

§ Visibility from observer

Set your observer location to see the next 7 days of passes ≥ 10°. The values pass through the URL so the page stays shareable.

No JS? Fill the form by hand. The geolocation button needs JavaScript.